KLM44M EHAM-ENBR

Flight info

Callsign KLM44M
Flight time 1h 22m
Altitude 34000
Route EHAM/09 BERG3N BERGI M90 LONAM DCT LARGA DCT PENUN DCT ALUVA ALUV2P ENBR/35
Aircraft A333/H-KLM/L

Departure

Time 2026-04-29 18:42
Airport Amsterdam Airport Schiphol (EHAM)

Arrival

Time 2026-04-29 20:04
Airport Bergen Airport, Flesland (ENBR)
Time Latitude Longitude Altitude Speed Heading
2026-04-29 18:22 52.31405 4.77042 8 ft 0 kts 302°
2026-04-29 18:29 52.31404 4.77044 8 ft 3 kts 302°
2026-04-29 18:30 52.31394 4.77071 10 ft 3 kts 302°
2026-04-29 18:30 52.31383 4.77098 10 ft 3 kts 302°
2026-04-29 18:30 52.31375 4.77121 11 ft 3 kts 316°
2026-04-29 18:30 52.31355 4.77138 11 ft 3 kts
2026-04-29 18:31 52.31344 4.77133 11 ft 0 kts 27°
2026-04-29 18:34 52.31371 4.77162 -15 ft 7 kts 30°
2026-04-29 18:34 52.31436 4.77192 10 ft 12 kts
2026-04-29 18:35 52.31539 4.77196 11 ft 14 kts 351°
2026-04-29 18:35 52.31566 4.77173 12 ft 7 kts 328°
2026-04-29 18:35 52.31571 4.77091 13 ft 13 kts 268°
2026-04-29 18:35 52.31560 4.76843 15 ft 28 kts 267°
2026-04-29 18:36 52.31555 4.76631 17 ft 25 kts 268°
2026-04-29 18:36 52.31544 4.76270 22 ft 24 kts 266°
2026-04-29 18:36 52.31533 4.75993 26 ft 24 kts 266°
2026-04-29 18:36 52.31526 4.75801 17 ft 27 kts 266°
2026-04-29 18:37 52.31513 4.75422 15 ft 19 kts 266°
2026-04-29 18:37 52.31508 4.75284 13 ft 17 kts 267°
2026-04-29 18:37 52.31500 4.75087 15 ft 16 kts 266°
2026-04-29 18:37 52.31494 4.74905 18 ft 16 kts 268°
2026-04-29 18:38 52.31492 4.74758 18 ft 10 kts 277°
2026-04-29 18:38 52.31516 4.74698 20 ft 4 kts 323°
2026-04-29 18:38 52.31535 4.74680 23 ft 3 kts 332°
2026-04-29 18:38 52.31561 4.74670 24 ft 0 kts 354°
2026-04-29 18:39 52.31574 4.74668 25 ft 7 kts 354°
2026-04-29 18:40 52.31638 4.74677 25 ft 8 kts 26°
2026-04-29 18:40 52.31666 4.74740 25 ft 7 kts 64°
2026-04-29 18:40 52.31673 4.74793 25 ft 1 kts 87°
2026-04-29 18:40 52.31674 4.74824 23 ft 5 kts 87°
2026-04-29 18:41 52.31732 4.76498 24 ft 125 kts 88°
2026-04-29 18:41 52.31778 4.78083 338 ft 144 kts 87°
2026-04-29 18:42 52.31827 4.79826 1023 ft 145 kts 86°
2026-04-29 18:42 52.32166 4.81239 1650 ft 152 kts 46°
2026-04-29 18:42 52.33290 4.81519 2192 ft 188 kts 349°
2026-04-29 18:42 52.34557 4.80469 2456 ft 221 kts 343°
2026-04-29 18:43 52.36057 4.79766 3011 ft 228 kts 355°
2026-04-29 18:43 52.37792 4.79190 3808 ft 236 kts 352°
2026-04-29 18:43 52.39188 4.78143 4498 ft 250 kts 328°
2026-04-29 18:43 52.40563 4.76202 4984 ft 272 kts 319°
2026-04-29 18:44 52.41971 4.73880 5614 ft 284 kts 317°
2026-04-29 18:44 52.43341 4.71586 6113 ft 288 kts 317°
2026-04-29 18:44 52.44750 4.69242 6320 ft 288 kts 318°
2026-04-29 18:44 52.46195 4.66970 6334 ft 286 kts 325°
2026-04-29 18:45 52.47727 4.65444 6334 ft 281 kts 339°
2026-04-29 18:45 52.49677 4.64098 6563 ft 280 kts 343°
2026-04-29 18:45 52.51525 4.62916 7296 ft 282 kts 343°
2026-04-29 18:45 52.53358 4.61744 8257 ft 283 kts 343°
2026-04-29 18:46 52.55198 4.60561 9184 ft 285 kts 343°
2026-04-29 18:46 52.57056 4.59361 10070 ft 289 kts 343°
2026-04-29 18:46 52.58955 4.58133 10765 ft 299 kts 343°
2026-04-29 18:46 52.60957 4.56842 11103 ft 320 kts 343°
2026-04-29 18:47 52.63098 4.55455 11520 ft 337 kts 343°
2026-04-29 18:47 52.65307 4.54008 12164 ft 345 kts 342°
2026-04-29 18:47 52.67461 4.52158 12858 ft 356 kts 329°
2026-04-29 18:47 52.69277 4.49347 13261 ft 366 kts 313°
2026-04-29 18:48 52.70809 4.45912 13368 ft 371 kts 308°
2026-04-29 18:48 52.72268 4.42390 13435 ft 372 kts 310°
2026-04-29 18:48 52.74012 4.39270 13969 ft 369 kts 325°
2026-04-29 18:48 52.76176 4.37052 14717 ft 362 kts 340°
2026-04-29 18:49 52.78517 4.35557 15434 ft 361 kts 347°
2026-04-29 18:49 52.80933 4.34419 16105 ft 362 kts 350°
2026-04-29 18:49 52.83397 4.33474 16757 ft 365 kts 352°
2026-04-29 18:49 52.85891 4.32604 17401 ft 368 kts 352°
2026-04-29 18:50 52.88408 4.31736 18044 ft 371 kts 352°
2026-04-29 18:50 52.90954 4.30835 18679 ft 375 kts 351°
2026-04-29 18:50 52.93511 4.29899 19186 ft 378 kts 351°
2026-04-29 18:50 52.96088 4.28929 19767 ft 380 kts 351°
2026-04-29 18:51 52.98674 4.27936 20313 ft 383 kts 350°
2026-04-29 18:51 53.01317 4.26913 20839 ft 386 kts 351°
2026-04-29 18:51 53.03949 4.25890 21353 ft 389 kts 351°
2026-04-29 18:51 53.06605 4.24856 21849 ft 393 kts 350°
2026-04-29 18:52 53.09264 4.23820 22342 ft 396 kts 349°
2026-04-29 18:52 53.11960 4.22769 22860 ft 398 kts 350°
2026-04-29 18:52 53.14670 4.21713 23341 ft 401 kts 350°
2026-04-29 18:52 53.17405 4.20647 23805 ft 405 kts 349°
2026-04-29 18:53 53.20161 4.19570 24221 ft 407 kts 350°
2026-04-29 18:53 53.22876 4.18508 24381 ft 407 kts 350°
2026-04-29 18:53 53.25636 4.17425 24412 ft 408 kts 350°
2026-04-29 18:53 53.28410 4.16408 24660 ft 409 kts 354°
2026-04-29 18:54 53.31291 4.16024 25119 ft 406 kts
2026-04-29 18:54 53.34149 4.16147 25525 ft 407 kts
2026-04-29 18:54 53.36990 4.16399 25933 ft 409 kts
2026-04-29 18:54 53.39834 4.16693 26353 ft 410 kts
2026-04-29 18:55 53.42695 4.17007 26719 ft 413 kts
2026-04-29 18:55 53.45570 4.17330 27104 ft 414 kts
2026-04-29 18:55 53.48453 4.17657 27506 ft 416 kts
2026-04-29 18:55 53.51351 4.17989 27867 ft 419 kts
2026-04-29 18:56 53.54225 4.18319 28243 ft 420 kts
2026-04-29 18:56 53.57154 4.18657 28599 ft 422 kts
2026-04-29 18:56 53.60106 4.18998 28962 ft 425 kts
2026-04-29 18:56 53.63062 4.19340 29312 ft 426 kts
2026-04-29 18:57 53.66036 4.19685 29666 ft 429 kts
2026-04-29 18:57 53.69010 4.20030 30021 ft 430 kts
2026-04-29 18:57 53.72002 4.20378 30377 ft 432 kts
2026-04-29 18:57 53.75005 4.20727 30670 ft 434 kts
2026-04-29 18:58 53.78028 4.21079 30959 ft 436 kts
2026-04-29 18:58 53.81070 4.21435 31229 ft 438 kts
2026-04-29 18:58 53.84117 4.21791 31500 ft 440 kts
2026-04-29 18:58 53.87167 4.22148 31777 ft 441 kts
2026-04-29 18:59 53.90236 4.22508 32043 ft 443 kts
2026-04-29 18:59 53.93290 4.22867 32300 ft 445 kts
2026-04-29 18:59 53.96399 4.23232 32559 ft 447 kts
2026-04-29 18:59 53.99493 4.23596 32890 ft 446 kts
2026-04-29 19:00 54.02578 4.23959 33269 ft 445 kts
2026-04-29 19:00 54.05665 4.24323 33646 ft 443 kts
2026-04-29 19:00 54.08744 4.24687 34006 ft 442 kts
2026-04-29 19:00 54.11811 4.25050 34327 ft 442 kts
2026-04-29 19:01 54.14877 4.25413 34450 ft 436 kts
2026-04-29 19:01 54.17859 4.25764 34453 ft 424 kts
2026-04-29 19:01 54.23683 4.26458 34459 ft 418 kts
2026-04-29 19:02 54.28522 4.27038 34465 ft 418 kts
2026-04-29 19:02 54.34325 4.27734 34465 ft 419 kts
2026-04-29 19:03 54.40142 4.28433 34467 ft 419 kts
2026-04-29 19:03 54.45967 4.29135 34467 ft 419 kts
2026-04-29 19:04 54.51778 4.29836 34473 ft 419 kts
2026-04-29 19:04 54.57589 4.30540 34472 ft 419 kts
2026-04-29 19:05 54.63366 4.31241 34475 ft 419 kts
2026-04-29 19:05 54.69208 4.31953 34475 ft 419 kts
2026-04-29 19:06 54.74996 4.32660 34482 ft 421 kts
2026-04-29 19:07 54.83804 4.33740 34483 ft 423 kts
2026-04-29 19:07 54.89676 4.34461 34485 ft 423 kts
2026-04-29 19:08 54.95553 4.35187 34484 ft 423 kts
2026-04-29 19:08 55.01411 4.35911 34490 ft 424 kts
2026-04-29 19:09 55.07283 4.36640 34488 ft 424 kts
2026-04-29 19:09 55.13170 4.37373 34492 ft 424 kts
2026-04-29 19:10 55.19050 4.38107 34493 ft 424 kts
2026-04-29 19:10 55.24947 4.38845 34498 ft 424 kts
2026-04-29 19:11 55.30836 4.39584 34498 ft 424 kts
2026-04-29 19:11 55.36724 4.40326 34500 ft 424 kts
2026-04-29 19:12 55.42576 4.41065 34500 ft 424 kts
2026-04-29 19:12 55.48457 4.41811 34502 ft 424 kts
2026-04-29 19:13 55.54354 4.42560 34503 ft 424 kts
2026-04-29 19:13 55.60236 4.43310 34507 ft 424 kts
2026-04-29 19:14 55.66123 4.44062 34508 ft 424 kts
2026-04-29 19:14 55.71998 4.44816 34508 ft 424 kts
2026-04-29 19:15 55.77888 4.45573 34508 ft 424 kts
2026-04-29 19:15 55.83784 4.46334 34513 ft 424 kts
2026-04-29 19:16 55.89631 4.47090 34513 ft 424 kts
2026-04-29 19:16 55.95520 4.47855 34514 ft 424 kts
2026-04-29 19:17 56.01413 4.48622 34513 ft 424 kts
2026-04-29 19:17 56.07298 4.49390 34515 ft 424 kts
2026-04-29 19:18 56.13179 4.50161 34515 ft 424 kts
2026-04-29 19:18 56.19070 4.50935 34516 ft 424 kts
2026-04-29 19:19 56.24959 4.51712 34513 ft 424 kts
2026-04-29 19:19 56.30872 4.52493 34515 ft 425 kts
2026-04-29 19:20 56.36778 4.53276 34519 ft 425 kts
2026-04-29 19:20 56.42669 4.54060 34519 ft 425 kts
2026-04-29 19:21 56.48649 4.54858 34516 ft 425 kts
2026-04-29 19:21 56.54531 4.55645 34518 ft 426 kts
2026-04-29 19:22 56.60456 4.56441 34518 ft 426 kts
2026-04-29 19:22 56.66365 4.57237 34518 ft 426 kts
2026-04-29 19:23 56.72329 4.58043 34517 ft 426 kts
2026-04-29 19:23 56.78248 4.58846 34517 ft 426 kts
2026-04-29 19:24 56.84161 4.59649 34518 ft 427 kts
2026-04-29 19:24 56.90082 4.60457 34516 ft 427 kts
2026-04-29 19:25 56.96005 4.61268 34518 ft 427 kts
2026-04-29 19:25 57.02010 4.62092 34510 ft 427 kts
2026-04-29 19:26 57.07938 4.62909 34508 ft 427 kts
2026-04-29 19:26 57.13855 4.63726 34509 ft 427 kts
2026-04-29 19:27 57.19790 4.64549 34510 ft 427 kts
2026-04-29 19:27 57.25716 4.65373 34510 ft 427 kts
2026-04-29 19:28 57.31635 4.66199 34509 ft 427 kts
2026-04-29 19:28 57.37564 4.67029 34508 ft 427 kts
2026-04-29 19:29 57.43489 4.67861 34508 ft 427 kts
2026-04-29 19:29 57.49409 4.68695 34508 ft 427 kts
2026-04-29 19:30 57.55322 4.69531 34506 ft 427 kts
2026-04-29 19:30 57.61248 4.70371 34508 ft 427 kts
2026-04-29 19:31 57.67177 4.71215 34507 ft 427 kts
2026-04-29 19:31 57.73114 4.72062 34505 ft 427 kts
2026-04-29 19:32 57.79031 4.72909 34504 ft 427 kts
2026-04-29 19:32 57.84967 4.73762 34507 ft 427 kts
2026-04-29 19:33 57.90877 4.74614 34501 ft 428 kts
2026-04-29 19:33 57.96802 4.75471 34500 ft 428 kts
2026-04-29 19:34 58.02738 4.76332 34497 ft 428 kts
2026-04-29 19:34 58.08675 4.77197 34502 ft 428 kts
2026-04-29 19:35 58.14620 4.78065 34500 ft 428 kts
2026-04-29 19:35 58.20559 4.78936 34496 ft 428 kts
2026-04-29 19:36 58.26517 4.79812 34384 ft 428 kts
2026-04-29 19:36 58.28471 4.80100 34205 ft 428 kts
2026-04-29 19:36 58.31490 4.80546 33826 ft 429 kts
2026-04-29 19:36 58.34462 4.80985 33293 ft 429 kts
2026-04-29 19:37 58.37487 4.81433 32759 ft 430 kts
2026-04-29 19:37 58.39467 4.81726 32402 ft 430 kts
2026-04-29 19:37 58.43473 4.82322 31570 ft 431 kts
2026-04-29 19:37 58.46474 4.82768 30948 ft 429 kts
2026-04-29 19:38 58.49439 4.83212 30285 ft 420 kts
2026-04-29 19:38 58.52334 4.83644 29588 ft 420 kts
2026-04-29 19:38 58.55229 4.84077 28900 ft 418 kts
2026-04-29 19:38 58.58118 4.84510 28232 ft 414 kts
2026-04-29 19:39 58.61026 4.84947 27548 ft 410 kts
2026-04-29 19:39 58.63845 4.85371 26939 ft 401 kts
2026-04-29 19:39 58.66576 4.85784 26304 ft 387 kts
2026-04-29 19:39 58.69231 4.86185 25690 ft 376 kts
2026-04-29 19:40 58.71807 4.86574 25083 ft 365 kts
2026-04-29 19:40 58.74272 4.86947 24495 ft 356 kts
2026-04-29 19:40 58.76723 4.87318 23886 ft 348 kts
2026-04-29 19:40 58.79114 4.87680 23198 ft 342 kts
2026-04-29 19:41 58.81465 4.88037 22535 ft 338 kts
2026-04-29 19:41 58.83806 4.88392 21883 ft 335 kts
2026-04-29 19:41 58.86120 4.88810 21242 ft 331 kts
2026-04-29 19:41 58.88398 4.89309 20623 ft 328 kts
2026-04-29 19:42 58.90654 4.89812 20022 ft 326 kts
2026-04-29 19:42 58.92173 4.90148 19607 ft 324 kts
2026-04-29 19:42 58.95123 4.90795 18827 ft 321 kts
2026-04-29 19:42 58.97333 4.91276 18150 ft 316 kts
2026-04-29 19:43 58.99501 4.91746 17499 ft 310 kts
2026-04-29 19:43 59.01655 4.92213 16853 ft 307 kts
2026-04-29 19:43 59.03772 4.92671 16217 ft 304 kts
2026-04-29 19:43 59.05870 4.93126 15599 ft 301 kts
2026-04-29 19:44 59.07936 4.93574 15007 ft 299 kts
2026-04-29 19:44 59.09997 4.94022 14525 ft 297 kts
2026-04-29 19:44 59.12042 4.94467 14024 ft 295 kts
2026-04-29 19:44 59.14107 4.94916 13486 ft 293 kts
2026-04-29 19:45 59.16123 4.95356 12965 ft 292 kts
2026-04-29 19:45 59.18130 4.95794 12454 ft 291 kts
2026-04-29 19:45 59.20198 4.96246 11944 ft 289 kts
2026-04-29 19:45 59.22193 4.96682 11582 ft 288 kts
2026-04-29 19:46 59.24185 4.97119 11489 ft 288 kts
2026-04-29 19:46 59.26173 4.97554 11486 ft 288 kts
2026-04-29 19:46 59.28168 4.97992 11485 ft 289 kts
2026-04-29 19:46 59.30162 4.98430 11482 ft 287 kts
2026-04-29 19:47 59.32171 4.98872 11483 ft 287 kts
2026-04-29 19:47 59.34138 4.99305 11482 ft 287 kts
2026-04-29 19:47 59.36124 4.99743 11482 ft 287 kts
2026-04-29 19:47 59.38109 5.00181 11482 ft 287 kts
2026-04-29 19:48 59.40105 5.00622 11482 ft 287 kts
2026-04-29 19:48 59.41432 5.00915 11483 ft 287 kts
2026-04-29 19:48 59.44094 5.01505 11483 ft 287 kts
2026-04-29 19:48 59.46076 5.01945 11303 ft 287 kts
2026-04-29 19:49 59.48069 5.02388 10834 ft 284 kts
2026-04-29 19:49 59.50020 5.02822 10327 ft 283 kts
2026-04-29 19:49 59.51981 5.03259 9804 ft 283 kts
2026-04-29 19:49 59.53935 5.03694 9523 ft 283 kts
2026-04-29 19:50 59.55899 5.04132 9463 ft 283 kts
2026-04-29 19:50 59.57837 5.04564 9189 ft 281 kts
2026-04-29 19:50 59.59768 5.04997 8917 ft 273 kts
2026-04-29 19:50 59.61596 5.05408 8692 ft 255 kts
2026-04-29 19:51 59.63339 5.05801 8554 ft 244 kts
2026-04-29 19:51 59.65019 5.06177 8437 ft 243 kts
2026-04-29 19:51 59.66703 5.06554 8288 ft 243 kts
2026-04-29 19:51 59.68386 5.06930 8058 ft 243 kts
2026-04-29 19:52 59.70070 5.07309 7824 ft 243 kts
2026-04-29 19:52 59.71741 5.07685 7569 ft 242 kts
2026-04-29 19:52 59.73444 5.08069 7321 ft 241 kts
2026-04-29 19:52 59.75104 5.08444 7084 ft 240 kts
2026-04-29 19:53 59.76760 5.08818 6839 ft 239 kts
2026-04-29 19:53 59.78411 5.09191 6647 ft 238 kts
2026-04-29 19:53 59.80028 5.09559 6464 ft 228 kts
2026-04-29 19:53 59.81568 5.09909 6186 ft 219 kts
2026-04-29 19:54 59.84288 5.12197 5767 ft 219 kts 53°
2026-04-29 19:54 59.84964 5.14872 5628 ft 219 kts 66°
2026-04-29 19:54 59.85453 5.17764 5478 ft 219 kts 72°
2026-04-29 19:55 59.85882 5.20692 5300 ft 220 kts 72°
2026-04-29 19:55 59.86304 5.23612 5125 ft 220 kts 72°
2026-04-29 19:55 59.86725 5.26528 4956 ft 219 kts 72°
2026-04-29 19:55 59.86996 5.28408 4824 ft 217 kts 72°
2026-04-29 19:56 59.87702 5.31034 4633 ft 211 kts 43°
2026-04-29 19:56 59.88934 5.32652 4449 ft 209 kts 25°
2026-04-29 19:56 59.90266 5.33873 4278 ft 208 kts 22°
2026-04-29 19:56 59.91653 5.34733 4093 ft 207 kts
2026-04-29 19:57 59.93089 5.34563 3926 ft 206 kts 351°
2026-04-29 19:57 59.94031 5.34240 3822 ft 206 kts 349°
2026-04-29 19:57 59.95910 5.33499 3662 ft 206 kts 348°
2026-04-29 19:57 59.97322 5.32931 3567 ft 206 kts 348°
2026-04-29 19:58 59.98720 5.32367 3466 ft 206 kts 348°
2026-04-29 19:58 60.00143 5.31802 3355 ft 205 kts 349°
2026-04-29 19:58 60.01565 5.31311 3254 ft 205 kts 350°
2026-04-29 19:58 60.02983 5.30835 3150 ft 205 kts 351°
2026-04-29 19:59 60.04387 5.30367 3033 ft 206 kts 350°
2026-04-29 19:59 60.05827 5.29894 2958 ft 206 kts 351°
2026-04-29 19:59 60.07214 5.29437 2875 ft 206 kts 351°
2026-04-29 19:59 60.08699 5.28944 2804 ft 201 kts 351°
2026-04-29 20:00 60.10003 5.28522 2697 ft 190 kts 352°
2026-04-29 20:00 60.11352 5.28253 2600 ft 186 kts 354°
2026-04-29 20:00 60.12615 5.27810 2544 ft 184 kts 347°
2026-04-29 20:00 60.13968 5.27207 2453 ft 184 kts 348°
2026-04-29 20:01 60.15226 5.26686 2385 ft 183 kts 349°
2026-04-29 20:01 60.16484 5.26205 2267 ft 183 kts 349°
2026-04-29 20:01 60.17755 5.25746 2123 ft 183 kts 350°
2026-04-29 20:01 60.18985 5.25316 1932 ft 178 kts 350°
2026-04-29 20:02 60.20195 5.24901 1761 ft 168 kts 350°
2026-04-29 20:02 60.21317 5.24520 1544 ft 158 kts 350°
2026-04-29 20:02 60.22354 5.24170 1390 ft 143 kts 350°
2026-04-29 20:02 60.22685 5.24059 1329 ft 139 kts 350°
2026-04-29 20:03 60.23915 5.23645 1022 ft 129 kts 350°
2026-04-29 20:03 60.24799 5.23348 816 ft 127 kts 349°
2026-04-29 20:03 60.25688 5.23045 662 ft 128 kts 349°
2026-04-29 20:03 60.26541 5.22759 459 ft 126 kts 350°
2026-04-29 20:04 60.27413 5.22478 330 ft 126 kts 350°
2026-04-29 20:04 60.28272 5.22182 197 ft 123 kts 348°
2026-04-29 20:04 60.29059 5.21913 155 ft 100 kts 351°
2026-04-29 20:04 60.29500 5.21766 158 ft 46 kts 351°
2026-04-29 20:05 60.29691 5.21752 162 ft 15 kts 37°
2026-04-29 20:05 60.29708 5.21810 161 ft 1 kts 76°
2026-04-29 20:05 60.29712 5.21845 161 ft 4 kts 77°
2026-04-29 20:05 60.29719 5.21926 161 ft 7 kts 86°
2026-04-29 20:06 60.29696 5.21999 161 ft 7 kts 135°
2026-04-29 20:06 60.29655 5.22036 161 ft 6 kts 171°
2026-04-29 20:06 60.29591 5.22056 160 ft 13 kts 171°
2026-04-29 20:06 60.29479 5.22091 159 ft 18 kts 171°
2026-04-29 20:07 60.29355 5.22130 158 ft 19 kts 172°
2026-04-29 20:07 60.29220 5.22177 157 ft 20 kts 170°
2026-04-29 20:07 60.29109 5.22232 156 ft 9 kts 144°
2026-04-29 20:07 60.29072 5.22326 156 ft 9 kts 140°
2026-04-29 20:08 60.29013 5.22365 155 ft 10 kts 171°
2026-04-29 20:08 60.28979 5.22383 155 ft 7 kts 158°
2026-04-29 20:08 60.28946 5.22468 154 ft 6 kts 115°
2026-04-29 20:08 60.28935 5.22519 154 ft 3 kts 115°
2026-04-29 20:09 60.28933 5.22525 154 ft 0 kts 115°